Flag for U.S.A. Weather past 2 weeks in Livonia, Michigan, U.S.A.

Now
68 °F

Overcast.


Feels Like: 68 °F
Forecast: 66 / 85 °F
Wind: 10 mph from Southwest

Location: Detroit Metropolitan Wayne County Airport

Current Time: May 26, 2015 at 8:33:56 AM

Latest Report: May 26, 2015 at 7:53 AM


Visibility: 8 mi

Pressure: 30.06 "Hg

Humidity: 87%

Dew point: 64 °F

Location of LivoniaLocation

Historic Weather in Livonia — Graph

°F

Livonia temperature yesterday

Maximum temperature yesterday: 84 °F (at 4:53 PM)
Minimum temperature yesterday: 66 °F (at 2:53 AM)
Average temperature yesterday: 75 °F

Past Weeks' High & Low Weather Summary

 TemperatureHumidityPressure
High84 °F (May 18, 2:53 PM)97% (May 17, 4:53 AM)30.50 "Hg (May 17, 4:53 AM)
Low41 °F (May 14, 4:53 AM)25% (May 22, 5:53 PM)29.78 "Hg (May 11, 6:53 PM)
Average62 °F62%30.12 "Hg
* Reported May 11 6:53 AM — May 26 6:53 AM, Livonia, Weather by CustomWeather, © 2015

Note: Actual official high and low records may vary slightly from our data, if they occured in-between our weather recording intervals... More about our weather records

Advertising

Livonia weather history for previous 24 hours

 ConditionsComfort  
Time TempWeatherWind HumidityBarometerVisibility
6:53 AM
Tue, May 26
65 °FMostly cloudy.8 mph91%30.06 "Hg9 mi
5:53 AM65 °FMostly cloudy.3 mph91%30.04 "Hg10 mi
4:53 AM66 °FPassing clouds.6 mph87%30.03 "Hg10 mi
3:53 AM67 °FPassing clouds.8 mph85%30.02 "Hg10 mi
2:53 AM70 °FClear.12 mph79%30.02 "Hg10 mi
1:53 AM71 °FMostly cloudy.12 mph76%30.03 "Hg10 mi
12:53 AM73 °FMostly cloudy.12 mph69%30.03 "Hg10 mi
11:53 PM
Mon, May 25
74 °FPartly cloudy.12 mph64%30.01 "Hg10 mi
10:53 PM76 °FPartly cloudy.14 mph60%29.99 "Hg10 mi
9:53 PM74 °FBroken clouds.13 mph67%29.98 "Hg10 mi
8:53 PM78 °FPartly sunny.13 mph56%29.96 "Hg10 mi
7:53 PM80 °FBroken clouds.24 mph51%29.95 "Hg10 mi
6:53 PM81 °FBroken clouds.24 mph51%29.93 "Hg10 mi
5:53 PM83 °FPartly sunny.24 mph50%29.93 "Hg10 mi
4:53 PM84 °FBroken clouds.24 mph48%29.93 "Hg10 mi
3:53 PM79 °FLight rain. Broken clouds.28 mph60%29.95 "Hg8 mi
2:53 PM81 °FPartly sunny.28 mph54%29.96 "Hg10 mi
1:53 PM81 °FMostly cloudy.24 mph53%29.96 "Hg10 mi
12:53 PM82 °FCloudy.23 mph53%29.98 "Hg10 mi
11:53 AM78 °FMostly cloudy.22 mph58%29.99 "Hg10 mi
10:53 AM76 °FMostly cloudy.18 mph62%29.99 "Hg10 mi
9:53 AM74 °FLight rain. Mostly cloudy.16 mph64%30.01 "Hg10 mi
8:53 AM74 °FMostly cloudy.12 mph57%30.01 "Hg10 mi
Weather by CustomWeather, © 2015

See weather overviewHow to use our weather pages